Location: Sevilla
(37.3933°N, 5.9839°W)
Time: 02:58:47
(UTC+02:00)

Vanguard 3 - Pass Details

Date: 01 July 2024
Orbit: 508 x 3230 km, 33.3° (Epoch: 24 July)

Event Time Altitude Azimuth Distance (km) Brightness Sun altitude
Rises 08:28:21 0° 241° (WSW) 7,148 11.3 13.8°
Reaches altitude 10° 08:33:28 10° 239° (WSW) 6,000 11.0 14.8°
Maximum altitude 08:50:57 62° 165° (SSE) 2,562 10.0 18.1°
Drops below altitude 10° 09:01:39 10° 88° (E) 3,854 12.6 20.2°
Sets 09:04:12 0° 84° (E) 4,542 12.5 20.7°
